TimeEDT,TemperatureF,Dew PointF,Humidity,Sea Level PressureIn,VisibilityMPH,Wind Direction,Wind SpeedMPH,Gust SpeedMPH,PrecipitationIn,Events,Conditions,WindDirDegrees,DateUTC
12:16 AM,64.4,63.3,96,29.79,10.0,South,3.5,-,N/A,,Overcast,180,2013-08-07 04:16:00
12:36 AM,65.5,64.0,95,29.80,10.0,South,4.6,-,N/A,,Overcast,180,2013-08-07 04:36:00
12:56 AM,65.3,64.4,97,29.79,10.0,SSE,5.8,-,N/A,,Mostly Cloudy,160,2013-08-07 04:56:00
1:16 AM,65.5,64.9,98,29.80,3.0,Calm,Calm,-,N/A,Rain,Heavy Rain,0,2013-08-07 05:16:00
1:36 AM,64.6,63.9,98,29.79,4.0,South,6.9,-,N/A,Rain,Heavy Rain,170,2013-08-07 05:36:00
1:56 AM,65.3,65.3,100,29.78,2.5,SSE,3.5,-,N/A,Rain,Light Rain,150,2013-08-07 05:56:00
2:16 AM,64.6,64.6,100,29.78,7.0,SSE,4.6,-,N/A,,Mostly Cloudy,160,2013-08-07 06:16:00
2:36 AM,64.4,64.4,100,29.78,7.0,SSE,4.6,-,N/A,,Mostly Cloudy,150,2013-08-07 06:36:00
2:56 AM,64.4,64.4,100,29.76,5.0,SSE,4.6,-,N/A,,Mostly Cloudy,150,2013-08-07 06:56:00
3:16 AM,64.0,64.0,100,29.76,5.0,SSE,4.6,-,N/A,,Mostly Cloudy,150,2013-08-07 07:16:00
3:36 AM,64.2,64.2,100,29.76,2.5,SW,4.6,-,N/A,Rain,Heavy Rain,220,2013-08-07 07:36:00
3:56 AM,64.0,64.0,100,29.75,1.0,West,4.6,-,N/A,Rain,Heavy Rain,260,2013-08-07 07:56:00
4:16 AM,63.3,62.2,96,29.74,1.8,West,4.6,-,N/A,Rain,Heavy Rain,280,2013-08-07 08:16:00
4:35 AM,61.7,61.3,99,29.75,4.0,South,3.5,-,N/A,Rain,Heavy Rain,190,2013-08-07 08:35:00
4:56 AM,61.7,61.7,100,29.74,10.0,NNE,3.5,-,N/A,,Overcast,20,2013-08-07 08:56:00
5:16 AM,61.9,61.9,100,29.72,10.0,Calm,Calm,-,N/A,,Overcast,0,2013-08-07 09:16:00
5:36 AM,62.2,61.3,97,29.72,10.0,East,4.6,-,N/A,,Overcast,90,2013-08-07 09:36:00
5:56 AM,62.4,61.7,97,29.72,10.0,Calm,Calm,-,N/A,Rain,Light Rain,0,2013-08-07 09:56:00
6:16 AM,61.9,61.9,100,29.71,10.0,Calm,Calm,-,N/A,Rain,Light Rain,0,2013-08-07 10:16:00
6:36 AM,62.2,62.1,99,29.71,3.0,Calm,Calm,-,N/A,Rain,Rain,0,2013-08-07 10:36:00
6:56 AM,62.1,61.7,99,29.69,3.0,Calm,Calm,-,N/A,Rain,Rain,0,2013-08-07 10:56:00
7:16 AM,61.9,61.9,100,29.68,5.0,North,4.6,-,N/A,Rain,Rain,360,2013-08-07 11:16:00
7:36 AM,61.9,61.9,100,29.68,5.0,North,4.6,-,N/A,Rain,Rain,10,2013-08-07 11:36:00
7:56 AM,61.9,61.9,100,29.69,1.8,Calm,Calm,-,N/A,Rain,Heavy Rain,0,2013-08-07 11:56:00
8:16 AM,62.1,62.1,100,29.70,1.8,NE,4.6,-,N/A,Rain,Heavy Rain,40,2013-08-07 12:16:00
8:36 AM,62.4,62.4,100,29.69,5.0,Calm,Calm,-,N/A,Rain,Light Rain,0,2013-08-07 12:36:00
8:56 AM,63.0,63.0,100,29.70,10.0,Calm,Calm,-,N/A,Rain,Rain,0,2013-08-07 12:56:00
9:16 AM,63.5,63.5,100,29.71,3.0,Calm,Calm,-,N/A,Rain,Rain,0,2013-08-07 13:16:00
9:36 AM,63.7,63.7,100,29.70,4.0,Calm,Calm,-,N/A,Rain,Light Rain,0,2013-08-07 13:36:00
9:56 AM,64.2,64.2,100,29.71,3.0,Calm,Calm,-,N/A,Rain,Heavy Rain,0,2013-08-07 13:56:00
10:16 AM,63.5,63.5,100,29.71,5.0,Calm,Calm,-,N/A,Rain,Light Rain,0,2013-08-07 14:16:00
10:36 AM,64.4,64.4,100,29.72,10.0,Calm,Calm,-,N/A,,Overcast,0,2013-08-07 14:36:00
10:56 AM,64.9,64.8,99,29.71,10.0,SW,3.5,-,N/A,,Overcast,220,2013-08-07 14:56:00
11:16 AM,66.7,65.3,95,29.73,10.0,West,4.6,-,N/A,,Mostly Cloudy,260,2013-08-07 15:16:00
11:36 AM,68.2,65.5,91,29.72,10.0,West,3.5,-,N/A,,Mostly Cloudy,270,2013-08-07 15:36:00
11:56 AM,68.7,64.8,87,29.73,10.0,West,6.9,-,N/A,,Mostly Cloudy,270,2013-08-07 15:56:00
12:16 PM,70.0,65.7,86,29.75,10.0,West,5.8,-,N/A,,Mostly Cloudy,260,2013-08-07 16:16:00
12:36 PM,70.7,66.6,87,29.75,10.0,SW,4.6,-,N/A,,Mostly Cloudy,230,2013-08-07 16:36:00
12:56 PM,70.2,64.8,83,29.75,10.0,West,4.6,-,N/A,,Mostly Cloudy,270,2013-08-07 16:56:00
1:16 PM,67.6,64.9,91,29.76,10.0,SW,5.8,-,N/A,Rain,Light Rain,230,2013-08-07 17:16:00
1:36 PM,68.2,64.4,88,29.76,10.0,SW,8.1,-,N/A,Rain,Light Rain,230,2013-08-07 17:36:00
1:56 PM,68.0,65.7,92,29.77,10.0,WSW,6.9,-,N/A,,Overcast,240,2013-08-07 17:56:00
2:16 PM,68.7,65.1,88,29.77,10.0,WSW,6.9,-,N/A,,Mostly Cloudy,250,2013-08-07 18:16:00
2:36 PM,69.3,64.4,84,29.77,10.0,West,4.6,-,N/A,,Mostly Cloudy,270,2013-08-07 18:36:00
2:56 PM,69.6,64.8,84,29.78,10.0,NW,5.8,-,N/A,,Overcast,310,2013-08-07 18:56:00
3:16 PM,70.7,63.9,79,29.78,10.0,West,9.2,-,N/A,,Overcast,280,2013-08-07 19:16:00
3:36 PM,70.9,64.4,80,29.79,10.0,WNW,6.9,-,N/A,,Overcast,290,2013-08-07 19:36:00
3:56 PM,68.4,63.5,84,29.79,10.0,WNW,6.9,-,N/A,,Overcast,290,2013-08-07 19:56:00
4:16 PM,69.1,63.1,81,29.80,10.0,West,3.5,-,N/A,,Overcast,280,2013-08-07 20:16:00
4:36 PM,66.6,63.3,89,29.80,7.0,WSW,3.5,-,N/A,Rain,Light Rain,250,2013-08-07 20:36:00
4:56 PM,68.2,64.4,88,29.80,10.0,Calm,Calm,-,N/A,,Overcast,0,2013-08-07 20:56:00
5:16 PM,68.0,61.9,81,29.80,10.0,Calm,Calm,-,N/A,,Overcast,0,2013-08-07 21:16:00
5:36 PM,69.3,61.7,77,29.81,10.0,WNW,5.8,-,N/A,,Overcast,300,2013-08-07 21:36:00
5:56 PM,68.0,61.0,78,29.82,10.0,WNW,6.9,-,N/A,,Overcast,290,2013-08-07 21:56:00
6:16 PM,66.7,60.8,81,29.83,10.0,WNW,4.6,-,N/A,,Overcast,300,2013-08-07 22:16:00
6:36 PM,69.1,59.9,72,29.83,10.0,WNW,8.1,-,N/A,,Mostly Cloudy,300,2013-08-07 22:36:00
6:56 PM,67.5,59.4,75,29.84,10.0,NW,6.9,-,N/A,,Overcast,320,2013-08-07 22:56:00
7:16 PM,67.6,59.9,76,29.84,10.0,NNW,8.1,-,N/A,,Overcast,330,2013-08-07 23:16:00
7:36 PM,66.4,60.1,80,29.86,10.0,NNW,5.8,-,N/A,,Mostly Cloudy,340,2013-08-07 23:36:00
7:56 PM,64.4,59.0,83,29.87,10.0,NW,8.1,-,N/A,,Scattered Clouds,320,2013-08-07 23:56:00
8:16 PM,62.8,57.9,84,29.87,10.0,NNW,5.8,-,N/A,,Mostly Cloudy,330,2013-08-08 00:16:00
8:36 PM,62.1,58.1,87,29.88,10.0,NNW,8.1,-,N/A,,Mostly Cloudy,330,2013-08-08 00:36:00
8:56 PM,61.0,57.7,89,29.88,10.0,NNW,8.1,-,N/A,,Scattered Clouds,340,2013-08-08 00:56:00
9:16 PM,61.0,57.7,89,29.89,10.0,NNW,5.8,-,N/A,,Mostly Cloudy,330,2013-08-08 01:16:00
9:36 PM,60.8,57.7,90,29.90,10.0,NNW,5.8,-,N/A,,Mostly Cloudy,330,2013-08-08 01:36:00
9:56 PM,61.0,57.7,89,29.91,10.0,NNW,6.9,-,N/A,,Overcast,330,2013-08-08 01:56:00
10:16 PM,60.8,57.6,89,29.91,10.0,NW,5.8,-,N/A,,Overcast,310,2013-08-08 02:16:00
10:36 PM,59.9,57.0,90,29.92,10.0,NW,8.1,-,N/A,,Scattered Clouds,310,2013-08-08 02:36:00
10:56 PM,59.9,57.0,90,29.93,10.0,NNW,5.8,-,N/A,,Mostly Cloudy,330,2013-08-08 02:56:00
11:16 PM,59.9,56.8,90,29.93,10.0,WNW,8.1,-,N/A,,Overcast,300,2013-08-08 03:16:00
11:36 PM,60.1,56.3,87,29.93,10.0,WNW,3.5,-,N/A,,Overcast,300,2013-08-08 03:36:00
11:56 PM,59.9,55.6,86,29.94,10.0,NW,6.9,-,N/A,,Overcast,310,2013-08-08 03:56:00